Showing default

COSMOS 2583, 62904

Orbit data source: Space-Track

COSMOS 2583, 62904 is a payload satellite owned by MO RF (CIS) in LEO that was launched on Wed, 05 Feb 2025 UTC via a SOYUZ-2-1V launch vehicle from the Plesetsk Missile And Space Complex (PKMTR). Payload-class satellites include a variety of spacecraft equipped with specific instruments for various scientific and technological missions. These include communications satellites like Starlink; space stations such as the ISS; scientific satellites like the Hubble; Earth observation satellites from companies like Planet Labs, Umbra, and HawkEye 360; GPS; miniature CubeSats for education and research; and military/defense satellites.

Loading next visibility...
Identifier
62904, 2025-026C
Orbit
LEO
Country
Flag of CISCIS
Related business
Manufacturer
VNIIEM
Mission
Operational Defense Imaging
Bus & Motor
EMKA, Unknown motor
Mass
~500 kg wet, 500 kg dry
Launch date (UTC)
2025-02-05 (1 year ago)
Launch vehicle
SOYUZ-2-1V
Launch site
Plesetsk Missile And Space Complex (PKMTR)
Object type
Payload
Rocket body
Debris
Shape & HBR
Cyl + 2 Pan, 14.5 m
Radar Cross Section
3.727 m², Medium (>0.1 m² and < 1m²)

Expand to show TLE details & history
Last TLE update: 13 hours ago

TLE from 13 hours ago
0 COSMOS 2583
1 62904U 25026C   26202.69035781  .00001338  00000-0  12001-3 0  9999
2 62904  81.9943  39.2852 0009061 308.0866  51.9536 14.95060119 79352
Epoch: 2026-07-21T16:34Z
TLE epoch observation values (Epoch: 2026-07-21T16:34:06.914Z)
Latitude
-0.00003°
Longitude
-148.70004°
Altitude
581.341 km
Speed
7.572 km/s
True Right ascension
02h 37m 08s
True Declination
0° 00' 00"
Sunlit
Object was in daylight at epoch
Visualization orbit readout
Latitude
Unknown
Longitude
Unknown
Altitude
Unknown
Speed
Unknown
Apparent Right ascension
Unknown
Apparent Declination
Unknown
Sunlit
N/A
Visualization observer readout
Local Sidereal Time
18:37:45
Azimuth
Unknown
Elevation
Unknown
Doppler factor
Unknown
Orbital elements
Apogee altitude
585.516 km
Perigee altitude
572.908 km
Semi-major axis
6,957.349 km
Eccentricity
0.00091
Inclination
81.9943°
RAAN
39.2852°
Arg. of periapsis
308.0866°
True anomaly
52.03543°
Mean anomaly
51.9536°
Eccentric anomaly
51.99451°
Mean motion
3.74005 °/min
Orbital period
96.26 mins
BSTAR
0.00012001
Loading maneuver chart data...
Computing Atmospheric mass density...
Loading historical data...
Loading historical data...
Loading historical data...
Loading historical data...
Loading historical data...
Loading historical data...
Loading historical data...

Documentation

Showing up to 5 results
|